TimeEST,TemperatureF,Dew PointF,Humidity,Sea Level PressureIn,VisibilityMPH,Wind Direction,Wind SpeedMPH,Gust SpeedMPH,PrecipitationIn,Events,Conditions,WindDirDegrees,DateUTC
12:05 AM,48.2,48.2,100,29.77,4.0,Calm,Calm,-,0.02,Rain,Rain,0,2011-11-23 05:05:00
12:38 AM,48.2,46.4,93,29.79,1.8,WNW,21.9,32.2,0.09,Rain,Rain,300,2011-11-23 05:38:00
12:47 AM,50.0,48.2,94,29.79,2.5,WNW,12.7,29.9,0.17,Rain,Heavy Rain,290,2011-11-23 05:47:00
12:53 AM,50.0,48.0,93,29.82,1.5,Calm,Calm,-,0.24,Rain,Heavy Rain,0,2011-11-23 05:53:00
1:05 AM,48.2,48.2,100,29.77,1.8,Calm,Calm,-,0.14,Rain,Heavy Rain,0,2011-11-23 06:05:00
1:14 AM,50.0,48.2,94,29.76,3.0,ENE,3.5,-,0.16,Rain,Rain,70,2011-11-23 06:14:00
1:53 AM,50.0,48.9,96,29.77,6.0,ESE,9.2,-,0.24,Rain,Light Rain,120,2011-11-23 06:53:00
2:40 AM,51.8,51.8,100,29.70,6.0,SSE,5.8,-,0.08,Rain,Light Rain,160,2011-11-23 07:40:00
3:18 AM,51.8,50.0,94,29.68,0.8,WNW,4.6,-,0.01,Rain,Light Rain,290,2011-11-23 08:18:00
3:53 AM,50.0,48.9,96,29.69,0.8,WNW,3.5,-,0.03,Rain,Light Rain,300,2011-11-23 08:53:00
4:31 AM,48.2,48.2,100,29.64,0.2,Calm,Calm,-,0.00,Fog,Fog,0,2011-11-23 09:31:00
4:53 AM,48.9,48.9,100,29.67,0.2,NW,4.6,-,0.00,Fog,Fog,320,2011-11-23 09:53:00
5:53 AM,50.0,50.0,100,29.65,0.2,Calm,Calm,-,N/A,Fog,Fog,0,2011-11-23 10:53:00
6:11 AM,50.0,50.0,100,29.61,0.5,Calm,Calm,-,N/A,Fog,Fog,0,2011-11-23 11:11:00
6:18 AM,50.0,50.0,100,29.61,0.2,Calm,Calm,-,N/A,Fog,Fog,0,2011-11-23 11:18:00
6:53 AM,50.0,48.9,96,29.64,0.2,Calm,Calm,-,N/A,Fog,Fog,0,2011-11-23 11:53:00
7:53 AM,50.0,48.9,96,29.67,0.2,WNW,6.9,-,0.01,Fog-Rain,Light Rain,300,2011-11-23 12:53:00
8:27 AM,50.0,48.2,94,29.65,0.2,West,3.5,-,0.00,Fog,Fog,270,2011-11-23 13:27:00
8:44 AM,51.8,50.0,94,29.65,1.5,WSW,6.9,-,0.00,,Mostly Cloudy,240,2011-11-23 13:44:00
8:47 AM,51.8,50.0,94,29.65,6.0,WSW,8.1,-,0.00,,Mostly Cloudy,250,2011-11-23 13:47:00
8:53 AM,52.0,50.0,93,29.69,10.0,West,8.1,-,0.00,,Mostly Cloudy,280,2011-11-23 13:53:00
9:00 AM,53.6,51.8,94,29.66,10.0,West,4.6,-,N/A,,Mostly Cloudy,280,2011-11-23 14:00:00
9:46 AM,55.4,44.6,67,29.67,10.0,West,19.6,25.3,N/A,,Overcast,270,2011-11-23 14:46:00
9:53 AM,54.0,44.1,69,29.71,10.0,West,13.8,25.3,N/A,,Overcast,260,2011-11-23 14:53:00
10:53 AM,52.0,41.0,66,29.74,10.0,West,21.9,31.1,N/A,,Overcast,260,2011-11-23 15:53:00
11:53 AM,48.9,39.0,69,29.76,10.0,WNW,13.8,-,N/A,,Overcast,290,2011-11-23 16:53:00
12:53 PM,48.9,39.0,69,29.76,10.0,WNW,17.3,-,N/A,,Overcast,300,2011-11-23 17:53:00
1:01 PM,48.2,39.2,71,29.73,10.0,WNW,17.3,-,N/A,,Overcast,300,2011-11-23 18:01:00
1:53 PM,46.0,39.9,79,29.81,10.0,NW,23.0,31.1,N/A,,Overcast,310,2011-11-23 18:53:00
2:28 PM,46.4,37.4,71,29.80,10.0,NNW,24.2,34.5,N/A,,Overcast,330,2011-11-23 19:28:00
2:53 PM,48.0,37.9,68,29.86,10.0,NNW,17.3,27.6,N/A,,Overcast,330,2011-11-23 19:53:00
3:53 PM,48.0,36.0,63,29.90,10.0,NNW,28.8,36.8,N/A,,Scattered Clouds,330,2011-11-23 20:53:00
4:53 PM,46.9,35.1,63,29.97,10.0,NNW,16.1,21.9,N/A,,Mostly Cloudy,340,2011-11-23 21:53:00
5:53 PM,45.0,34.0,65,30.01,10.0,NNW,12.7,21.9,N/A,,Partly Cloudy,330,2011-11-23 22:53:00
6:53 PM,44.1,33.1,65,30.04,10.0,NW,17.3,-,N/A,,Clear,320,2011-11-23 23:53:00
7:53 PM,43.0,32.0,65,30.08,10.0,NNW,17.3,-,N/A,,Clear,330,2011-11-24 00:53:00
8:53 PM,42.1,32.0,67,30.10,10.0,NNW,12.7,-,N/A,,Clear,340,2011-11-24 01:53:00
10:53 PM,39.0,30.0,70,30.16,10.0,Calm,Calm,-,N/A,,Clear,0,2011-11-24 03:53:00
11:53 PM,37.9,30.0,73,30.18,10.0,WNW,4.6,-,N/A,,Clear,290,2011-11-24 04:53:00